Weather History for KAEG - January, 2013

Change the Weather History Date:

Tuesday, January 1, 2013

  Actual Average Record
Temperature  
Mean Temperature 19 °F -  
Max Temperature 30 °F - - ()
Min Temperature 8 °F - - ()
Degree Days  
Heating Degree Days 46    
Moisture  
Dew Point 8 °F    
Average Humidity 68    
Maximum Humidity 86    
Minimum Humidity 40    
Precipitation  
Precipitation 0.00 in - - ()
Sea Level Pressure  
Sea Level Pressure 30.14 in    
Wind  
Wind Speed 5 mph (NNW)    
Max Wind Speed 20 mph    
Max Gust Speed 17 mph    
Visibility 10 miles    
Events      
T = Trace of Precipitation, MM = Missing Value Source: NWS Daily Summary

Daily Weather History Graph

Daily Weather History Graph

Search for Another Location

Airport or City:

Trip Planner

Search our weather history database for the weather conditions in past years. The results will help you decide how hot, cold, wet, or windy it might be!

Date:

Astronomy

Jan. 01, 2013 Rise Set
Actual Time 7:15 AM MST 5:06 PM MST
Civil Twilight 6:47 AM MST 5:34 PM MST
Nautical Twilight 6:15 AM MST 6:06 PM MST
Astronomical Twilight 5:45 AM MST 6:37 PM MST
Moon 9:29 PM MST (1/1) 9:39 AM MST (1/1)
Length of Visible Light 10h 46m
Length of Day
9h 50m
Waning Gibbous, 83% of the Moon is Illuminated
Jan 1
Waning Gibbous
Jan 4
Last Quarter
Jan 11
New
Jan 18
First Quarter
Jan 26
Full

Hourly Weather History & Observations

Time (MST) Temp. Windchill Dew Point Humidity Pressure Visibility Wind Dir Wind Speed Gust Speed Precip Events Conditions
12:15 AM 15.8 °F - 10.4 °F 79% 30.06 in 10.0 mi Calm Calm - N/A   Mostly Cloudy
12:35 AM 15.8 °F - 10.4 °F 79% 30.06 in 10.0 mi Calm Calm - N/A   Mostly Cloudy
12:55 AM 17.6 °F - 12.2 °F 79% 30.06 in 10.0 mi Calm Calm - N/A   Partly Cloudy
1:15 AM 15.8 °F 5.1 °F 12.2 °F 86% 30.07 in 10.0 mi NNW 8.1 mph - N/A   Clear
1:35 AM 15.8 °F 6.1 °F 12.2 °F 86% 30.07 in 10.0 mi NNW 6.9 mph - N/A   Clear
1:55 AM 14.0 °F 2.9 °F 10.4 °F 86% 30.07 in 10.0 mi North 8.1 mph - N/A   Clear
2:15 AM 14.0 °F 3.9 °F 10.4 °F 86% 30.07 in 10.0 mi NNW 6.9 mph - N/A   Clear
2:35 AM 14.0 °F 3.9 °F 10.4 °F 86% 30.08 in 10.0 mi NNW 6.9 mph - N/A   Clear
2:55 AM 14.0 °F 3.9 °F 10.4 °F 86% 30.09 in 10.0 mi NNW 6.9 mph - N/A   Clear
3:15 AM 14.0 °F 2.9 °F 10.4 °F 86% 30.09 in 10.0 mi NNW 8.1 mph - N/A   Clear
3:35 AM 12.2 °F - 8.6 °F 85% 30.10 in 10.0 mi Calm Calm - N/A   Clear
3:55 AM 12.2 °F 2.9 °F 8.6 °F 85% 30.10 in 10.0 mi NNW 5.8 mph - N/A   Clear
4:15 AM 10.4 °F 2.2 °F 5.0 °F 79% 30.10 in 10.0 mi WNW 4.6 mph - N/A   Clear
4:35 AM 8.6 °F - 5.0 °F 85% 30.10 in 10.0 mi Calm Calm - N/A   Clear
6:50 AM 8.6 °F -2.6 °F 5.0 °F 85% 30.13 in 10.0 mi NW 6.9 mph - N/A   Partly Cloudy
7:50 AM 12.2 °F - 6.8 °F 79% 30.14 in 10.0 mi Calm Calm - N/A   Partly Cloudy
8:50 AM 19.4 °F - 12.2 °F 74% 30.18 in 10.0 mi Calm Calm - N/A   Partly Cloudy
9:50 AM 23.0 °F 15.8 °F 10.4 °F 59% 30.19 in 10.0 mi NW 5.8 mph - N/A   Partly Cloudy
10:50 AM 26.6 °F - 10.4 °F 51% 30.19 in 10.0 mi Calm Calm - N/A   Scattered Clouds
11:50 AM 28.4 °F - 10.4 °F 47% 30.14 in 10.0 mi Calm Calm - N/A   Scattered Clouds
12:50 PM 30.2 °F 21.9 °F 8.6 °F 40% 30.11 in 10.0 mi North 9.2 mph - N/A   Scattered Clouds
1:50 PM 30.2 °F 24.3 °F 10.4 °F 44% 30.11 in 10.0 mi Variable 5.8 mph - N/A   Mostly Cloudy
2:50 PM 30.2 °F 20.2 °F 10.4 °F 44% 30.11 in 10.0 mi North 12.7 mph 17.3 mph N/A   Mostly Cloudy
3:50 PM 28.4 °F 16.2 °F 6.8 °F 40% 30.13 in 10.0 mi NNW 17.3 mph - N/A   Scattered Clouds
4:50 PM 26.6 °F 15.2 °F 6.8 °F 43% 30.15 in 10.0 mi NNW 13.8 mph - N/A   Scattered Clouds
5:50 PM 23.0 °F 11.1 °F 6.8 °F 50% 30.15 in 10.0 mi NNW 12.7 mph - N/A   Scattered Clouds
6:50 PM 21.2 °F 8.9 °F 6.8 °F 54% 30.17 in 10.0 mi NNW 12.7 mph - N/A   Clear
7:50 PM 19.4 °F 3.6 °F 6.8 °F 58% 30.19 in 10.0 mi NNW 19.6 mph - N/A   Clear
8:50 PM 19.4 °F 5.5 °F 6.8 °F 58% 30.18 in 10.0 mi NW 15.0 mph - N/A   Clear
9:15 PM 19.4 °F 5.5 °F 6.8 °F 58% 30.18 in 10.0 mi NNW 15.0 mph - N/A   Clear
9:35 PM 17.6 °F 5.7 °F 6.8 °F 63% 30.19 in 10.0 mi North 10.4 mph - N/A   Clear
9:50 PM 17.6 °F 5.7 °F 6.8 °F 63% 30.19 in 10.0 mi NNW 10.4 mph - N/A   Clear
9:55 PM 17.6 °F 5.0 °F 6.8 °F 63% 30.19 in 10.0 mi North 11.5 mph - N/A   Clear
10:15 PM 17.6 °F 4.3 °F 6.8 °F 63% 30.19 in 10.0 mi NNW 12.7 mph - N/A   Clear
10:35 PM 17.6 °F 5.7 °F 6.8 °F 63% 30.20 in 10.0 mi North 10.4 mph - N/A   Clear
10:55 PM 15.8 °F 4.2 °F 6.8 °F 68% 30.20 in 10.0 mi North 9.2 mph - N/A   Clear
11:15 PM 15.8 °F - 6.8 °F 68% 30.20 in 10.0 mi Calm Calm - N/A   Clear
11:35 PM 14.0 °F 3.9 °F 6.8 °F 73% 30.21 in 10.0 mi NNE 6.9 mph - N/A   Clear
11:55 PM 12.2 °F - 5.0 °F 73% 30.22 in 10.0 mi Calm Calm - N/A   Clear